Weather reports worldwide

Advertisment
St. Mary's, United Kingdom (3803): temperature & dewpoint: 08.12.2017 18:00:00 - 14.12.2017 18:00:00 (GMT)St. Mary's, United Kingdom (3803): temperature -20cm: 08.12.2017 18:00:00 - 14.12.2017 18:00:00 (GMT)St. Mary's, United Kingdom (3803): wind speed & gusts: 08.12.2017 18:00:00 - 14.12.2017 18:00:00 (GMT)St. Mary's, United Kingdom (3803): wind direction: 08.12.2017 18:00:00 - 14.12.2017 18:00:00 (GMT)St. Mary's, United Kingdom (3803): reduced air pressure: 08.12.2017 18:00:00 - 14.12.2017 18:00:00 (GMT)St. Mary's, United Kingdom (3803): visibility: 08.12.2017 18:00:00 - 14.12.2017 18:00:00 (GMT)St. Mary's, United Kingdom (3803): precipitation: 08.12.2017 18:00:00 - 14.12.2017 18:00:00 (GMT)
Date & Time tt [°C] td [°C] tt -20cm [°C] ff [km/h] ff [kn] fx [km/h] fx [kn] dd ppp [hPa] vv [km] rr [mm]
14.12.2017 18:00:00 8,9 3,8 - 59 32 80 43 NW 995,8 19 0,0
14.12.2017 17:00:00 8,3 4,4 - 57 31 85 46 WNW 994,7 10 0,0
14.12.2017 16:00:00 8,4 4,2 - 50 27 78 42 W 995,2 10 0,0
14.12.2017 15:00:00 6,9 3,5 - 59 32 94 51 WNW 995,7 10 0,0
14.12.2017 14:00:00 8,5 3,0 - 54 29 76 41 WNW 995,8 10 0,2
14.12.2017 13:00:00 7,2 2,2 - 50 27 70 38 W 996,5 10 0,0
14.12.2017 12:00:00 6,4 4,0 - 37 20 85 46 W 997,8 10 0,6
14.12.2017 11:00:00 7,2 4,7 - 44 24 80 43 WNW 998,7 10 0,4
14.12.2017 10:00:00 7,7 4,5 - 41 22 81 44 W 998,8 10 0,2
14.12.2017 09:00:00 6,8 4,0 8,2 52 28 72 39 W 999,3 10 0,0
14.12.2017 08:00:00 6,4 4,7 - 44 24 67 36 W 999,9 10 0,4
14.12.2017 07:00:00 7,1 4,2 - 44 24 81 44 W 1000,3 6 0,0
14.12.2017 06:00:00 8,0 3,7 - 55 30 78 42 W 1000,9 17 0,2
14.12.2017 05:00:00 6,3 4,0 - 50 27 96 52 W 1001,5 20 0,6
14.12.2017 04:00:00 7,5 3,7 - 41 22 80 43 W 1002,0 21 0,0
14.12.2017 03:00:00 7,0 4,6 - 50 27 78 42 WNW 1002,8 15 0,2
14.12.2017 02:00:00 6,7 3,8 - 50 27 74 40 W 1003,4 9 0,2
14.12.2017 01:00:00 8,0 2,5 - 52 28 96 52 W 1003,4 18 0,0
14.12.2017 00:00:00 8,6 1,4 - 48 26 76 41 W 1003,7 17 0,0
13.12.2017 23:00:00 8,0 1,8 - 44 24 74 40 W 1003,7 21 0,0
13.12.2017 22:00:00 7,9 1,8 - 54 29 78 42 WNW 1003,5 18 0,0
13.12.2017 21:00:00 8,0 2,1 - 57 31 85 46 WNW 1003,0 15 0,0
13.12.2017 20:00:00 8,0 2,5 - 59 32 89 48 NW 1002,0 14 0,0
13.12.2017 19:00:00 7,4 4,8 - 57 31 100 54 WNW 1001,3 12 1,2
13.12.2017 18:00:00 8,1 6,0 - 50 27 100 54 W 1000,0 11 0,6
13.12.2017 17:00:00 10,2 4,8 - 55 30 80 43 W 999,9 10 0,0
13.12.2017 16:00:00 9,6 5,1 - 48 26 72 39 W 1000,7 10 0,0
13.12.2017 15:00:00 8,9 5,3 - 50 27 78 42 WNW 1000,9 10 0,2
13.12.2017 14:00:00 10,1 6,9 - 42 23 76 41 W 1000,7 10 0,2
13.12.2017 13:00:00 10,3 7,4 - 42 23 65 35 W 1001,1 10 0,2
13.12.2017 12:00:00 11,3 9,4 - 42 23 63 34 W 1001,2 10 0,0
13.12.2017 11:00:00 11,0 9,8 - 41 22 57 31 W 1001,8 10 0,0
13.12.2017 10:00:00 10,5 10,0 - 37 20 57 31 WSW 1002,3 10 0,4
13.12.2017 09:00:00 9,8 9,3 8,4 35 19 55 30 WSW 1003,1 2,5 0,2
13.12.2017 08:00:00 9,6 8,9 - 35 19 65 35 WSW 1003,9 9 0,2
13.12.2017 07:00:00 10,7 7,7 - 37 20 59 32 WSW 1004,7 12 0,0
13.12.2017 06:00:00 10,7 7,7 - 37 20 55 30 WSW 1005,4 13 0,0
13.12.2017 05:00:00 10,9 8,3 - 39 21 59 32 WSW 1006,1 10 0,0
13.12.2017 04:00:00 10,6 8,2 - 37 20 52 28 W 1006,6 12 0,0
13.12.2017 03:00:00 10,3 7,3 - 34 18 48 26 W 1007,2 18 0,0
13.12.2017 02:00:00 9,7 6,4 - 26 14 48 26 W 1007,6 24 0,0
13.12.2017 01:00:00 10,3 6,8 - 31 17 48 26 WNW 1008,1 13 0,0
13.12.2017 00:00:00 10,4 7,0 - 29 16 46 25 WNW 1007,7 12 0,0
12.12.2017 23:00:00 10,4 7,1 - 34 18 - - WNW 1007,6 11 0,0
12.12.2017 22:00:00 10,3 7,3 - 31 17 50 27 WNW 1006,6 11 0,0
12.12.2017 21:00:00 10,3 8,2 - 35 19 65 35 NW 1006,4 9 0,0
12.12.2017 20:00:00 10,6 10,0 - 44 24 67 36 SW 1006,0 6 0,2
12.12.2017 19:00:00 10,0 9,5 - 54 29 67 36 SW 1006,5 3,8 0,2
12.12.2017 18:00:00 9,5 8,5 - 52 28 67 36 SW 1007,4 7 0,0
12.12.2017 17:00:00 9,2 7,1 - 46 25 67 36 SSW 1007,9 10 0,0
12.12.2017 16:00:00 9,4 5,9 - 48 26 61 33 SSW 1007,3 10 0,0
12.12.2017 15:00:00 9,2 4,7 - 39 21 52 28 SW 1008,8 10 0,0
12.12.2017 14:00:00 8,6 5,6 - 29 16 54 29 SW 1009,4 10 0,2
12.12.2017 13:00:00 9,3 5,5 - 29 16 55 30 WSW 1009,9 10 0,0
12.12.2017 12:00:00 9,0 3,2 - 29 16 - - WSW 1010,5 10 0,0
12.12.2017 11:00:00 8,8 2,8 - 21 11 - - WSW 1010,9 10 0,0
12.12.2017 10:00:00 8,3 3,1 - 18 10 - - W 1010,9 10 0,0
12.12.2017 09:00:00 7,6 2,4 7,7 13 7 - - W 1010,2 10 0,0
12.12.2017 08:00:00 7,6 2,4 - 13 7 - - WNW 1010,3 10 0,0
12.12.2017 07:00:00 7,5 2,6 - 11 6 - - NW 1009,7 50 0,0
12.12.2017 06:00:00 7,8 2,3 - 22 12 - - NW 1009,2 40 0,0
12.12.2017 05:00:00 7,4 2,4 - 18 10 - - NW 1008,6 45 0,0
12.12.2017 04:00:00 7,4 2,2 - 21 11 - - NW 1008,2 50 0,0
12.12.2017 03:00:00 7,2 2,9 - 26 14 - - NNW 1007,9 40 0,0
12.12.2017 02:00:00 7,1 2,0 - 26 14 - - NNW 1007,1 40 0,0
12.12.2017 01:00:00 6,5 1,8 - - - - - - 1005,9 8 0,2
12.12.2017 00:00:00 7,8 2,4 - 28 15 - - N 1005,3 50 0,0
11.12.2017 23:00:00 7,4 2,7 - 34 18 50 27 N 1003,8 45 0,0
11.12.2017 22:00:00 7,6 2,0 - 37 20 61 33 NNW 1003,0 50 0,0
11.12.2017 21:00:00 7,0 3,7 - 31 17 59 32 NNW 1002,7 40 0,4
11.12.2017 20:00:00 7,6 1,9 - 37 20 52 28 NNW 1001,6 50 0,0
11.12.2017 19:00:00 7,6 2,7 - 39 21 54 29 NNW 999,7 45 0,0
11.12.2017 18:00:00 7,0 3,4 - 34 18 52 28 NW 998,5 45 0,0
11.12.2017 17:00:00 7,4 2,2 - 34 18 50 27 N 997,4 10 0,0
11.12.2017 16:00:00 7,4 2,6 - 29 16 55 30 NNW 996,2 10 0,0
11.12.2017 15:00:00 7,0 1,2 - 34 18 50 27 NNW 995,2 10 0,0
11.12.2017 14:00:00 7,2 1,3 - 39 21 61 33 NNW 994,4 10 0,0
11.12.2017 13:00:00 7,5 2,1 - 42 23 65 35 NNW 993,1 10 0,0
11.12.2017 12:00:00 7,5 1,2 - 42 23 65 35 N 991,9 10 0,0
11.12.2017 11:00:00 6,8 0,1 - 46 25 74 40 N 990,9 10 0,0
11.12.2017 10:00:00 6,5 -0,4 - 50 27 76 41 N 989,3 10 0,0
11.12.2017 09:00:00 6,5 -0,3 8,2 46 25 72 39 N 987,3 10 0,0
11.12.2017 08:00:00 5,9 -0,2 - 50 27 78 42 N 985,5 10 0,0
11.12.2017 07:00:00 4,5 1,7 - 55 30 91 49 NNE 983,8 14 0,8
11.12.2017 06:00:00 3,9 1,9 - 54 29 85 46 N 981,9 7 0,4
11.12.2017 05:00:00 5,8 2,3 - 54 29 80 43 N 979,7 19 0,2
11.12.2017 04:00:00 6,1 1,3 - 55 30 78 42 N 978,0 45 0,0
11.12.2017 03:00:00 5,9 2,5 - 52 28 76 41 N 977,5 40 0,0
11.12.2017 02:00:00 6,2 3,8 - 52 28 72 39 N 977,2 19 0,4
11.12.2017 01:00:00 6,4 5,3 - 44 24 70 38 N 976,6 4,5 2,6
11.12.2017 00:00:00 7,6 5,2 - 26 14 - - NNE 976,2 45 0,0
10.12.2017 23:00:00 7,7 4,9 - 8 4 - - N 975,9 26 0,0
10.12.2017 22:00:00 7,0 4,3 - 5 3 - - NW 976,3 27 0,0
10.12.2017 21:00:00 8,6 3,4 - 16 9 - - W 976,6 26 0,0
10.12.2017 20:00:00 8,4 3,9 - 24 13 - - W 977,3 29 0,0
10.12.2017 19:00:00 8,3 3,7 - 26 14 - - W 977,9 28 0,0
10.12.2017 18:00:00 8,7 3,8 - 29 16 - - W 978,4 23 0,0
10.12.2017 17:00:00 8,2 4,2 - 37 20 59 32 WNW 979,4 25 0,0
10.12.2017 16:00:00 9,1 4,6 - 39 21 63 34 W 980,3 16 0,0
10.12.2017 15:00:00 8,9 3,5 - 46 25 65 35 W 980,7 29 0,0
10.12.2017 14:00:00 9,5 4,3 - 50 27 72 39 W 982,0 22 0,0
10.12.2017 13:00:00 9,3 5,1 - 46 25 68 37 W 982,6 15 0,0
10.12.2017 12:00:00 8,9 4,4 - 46 25 70 38 W 983,7 11 0,0
10.12.2017 11:00:00 9,9 4,8 - 44 24 70 38 W 984,2 13 0,0
10.12.2017 10:00:00 10,0 4,8 - 48 26 87 47 W 985,0 13 0,0
10.12.2017 09:00:00 10,1 4,8 8,9 57 31 87 47 W 985,4 13 0,0
10.12.2017 08:00:00 10,0 4,6 - 59 32 98 53 W 985,8 13 0,0
10.12.2017 07:00:00 10,2 3,6 - 67 36 100 54 W 985,8 12 0,0
10.12.2017 06:00:00 10,2 5,4 - 63 34 91 49 W 986,2 10 0,0
10.12.2017 05:00:00 10,2 6,8 - 52 28 98 53 W 986,3 9 0,0
10.12.2017 04:00:00 10,7 9,0 - 59 32 85 46 W 986,7 9 0,4
10.12.2017 03:00:00 11,3 10,9 - 48 26 91 49 W 988,4 6 3,0
10.12.2017 02:00:00 12,6 12,5 - 52 28 74 40 WSW 989,1 1,5 3,6
10.12.2017 01:00:00 12,5 12,3 - 46 25 63 34 SW 990,9 3,4 7,0
10.12.2017 00:00:00 10,7 10,5 - 35 19 61 33 SSE 994,1 2,8 3,6
09.12.2017 23:00:00 9,2 8,8 - 44 24 65 35 SE 996,9 3,4 1,6
09.12.2017 22:00:00 9,0 8,5 - 52 28 65 35 SE 999,3 8 0,4
09.12.2017 21:00:00 8,7 8,1 - 48 26 57 31 SSE 1001,6 5 3,0
09.12.2017 20:00:00 8,2 7,5 - 39 21 52 28 SE 1004,0 5 1,4
09.12.2017 19:00:00 7,8 6,8 - 39 21 50 27 SSE 1006,0 5 0,8
09.12.2017 18:00:00 7,7 6,4 - 31 17 - - SE 1007,8 10 1,4
09.12.2017 17:00:00 7,3 6,1 - 31 17 - - SSE 1009,2 9 1,2
09.12.2017 16:00:00 7,1 5,8 - 34 18 - - SSE 1010,7 12 0,8
09.12.2017 15:00:00 7,5 4,9 - 26 14 - - S 1012,1 40 0,0
09.12.2017 14:00:00 7,7 4,8 - 24 13 - - S 1013,9 45 0,2
09.12.2017 13:00:00 7,2 4,6 - 26 14 - - S 1015,8 15 0,0
09.12.2017 12:00:00 8,1 4,1 - 18 10 - - S 1017,3 10 0,0
09.12.2017 11:00:00 7,7 3,6 - 18 10 - - S 1019,0 10 0,0
09.12.2017 10:00:00 7,0 3,2 - 8 4 - - SE 1019,8 10 0,0
09.12.2017 09:00:00 6,2 2,5 8,2 0 0 - - N 1020,7 10 0,2
09.12.2017 08:00:00 5,5 2,5 - 9 5 - - N 1021,5 10 0,0
09.12.2017 07:00:00 6,3 2,4 - 8 4 - - NNW 1022,3 50 0,0
09.12.2017 06:00:00 6,3 1,8 - 9 5 - - NW 1022,9 50 0,0
09.12.2017 05:00:00 5,9 1,9 - 8 4 - - NW 1023,4 50 0,0
09.12.2017 04:00:00 6,6 2,3 - 15 8 - - NW 1024,1 50 0,0
09.12.2017 03:00:00 5,5 2,1 - 22 12 - - NNW 1024,8 50 0,0
09.12.2017 02:00:00 5,7 2,9 - 15 8 - - NNW 1025,4 50 0,2
09.12.2017 01:00:00 6,2 2,8 - 21 11 - - NNW 1025,7 50 0,0
09.12.2017 00:00:00 6,0 1,9 - 34 18 57 31 W 1026,3 50 0,2
08.12.2017 23:00:00 7,6 1,1 - 22 12 - - NW 1026,4 45 0,0
08.12.2017 22:00:00 7,2 -1,5 - 28 15 - - NW 1026,6 45 0,0
08.12.2017 21:00:00 7,0 0,0 - 26 14 - - NW 1027,0 45 0,0
08.12.2017 20:00:00 7,0 0,0 - 28 15 - - NNW 1027,1 50 0,0
08.12.2017 19:00:00 6,6 0,1 - 29 16 54 29 NNW 1027,3 45 0,0
08.12.2017 18:00:00 7,4 0,0 - 35 19 50 27 NW 1027,0 45 0,0

tt = temperature
td = dewpoint
tt -20cm = temperature -20cm
ff = wind speed
fx = gusts
dd = wind direction
ppp = reduced air pressure
vv = visibility
rr = precipitation

Next stations